Tracking 30313 objects as of 22-Apr-2025
HD Live streaming from Space Station
objects crossing your sky now

THORAD DELTA 1 DEB

Track THORAD DELTA 1 DEB now!
10-day predictions


NORAD ID: 8178
Int'l Code: 1974-089AU
Perigee: 1,288.8 km
Apogee: 1,607.1 km
Inclination: 102.2 °
Period: 114.7 minutes
Semi major axis: 7818 km
RCS: 0.0233 m2 (small)
Launch date: November 15, 1974
Source: United States (US)
Launch site: AIR FORCE WESTERN TEST RANGE (AFWTR)

Note: This is SATELLITE DEBRIS
Your satellite tracking list
Your tracking list is empty




NASA's NSSDC Master Catalog

Two Line Element Set (TLE):
1 08178U 74089AU  25109.62070664  .00001132  00000-0  66551-2 0  9992
2 08178 102.1916 157.9675 0203544  93.8103  59.2011 12.55673587272725
Source of the keplerian elements: AFSPC